MMS 2

Last updated on June 17, 2021, 11:06 a.m. UTC

1 40483U 15011B   21167.55867706 -.00000472  00000-0  00000-0 0  9992
2 40483  33.4738 116.8165 8437109  33.2291  77.3415  0.28565384 12325
UTC
Height (km)
Latitude
Longitude
Inclination
Orbital Period
UTC large
Height (km)
Speed (km/s)
/
Latitude / Longitude
Inclination (degrees)
Orbital Period (minutes)
Azimuth
Elevation
Range (km)
Doppler Factor
iOS Compass Heading
iOS Angle

Next 30 passes for location: Hong Kong

Rise time Rise Azimuth (degrees) Set time Set Azimuth (degrees) Duration Max altitude (degrees)

No matching passes for this satellites